Three Rivers, MI

4:32 PM EDT on September 23, 2019 (GMT -0400)
Three Rivers Municipal-Haines

Weather History for KHAI - August, 2019

Change the Weather History Date:

Saturday, August 24, 2019

  Actual Average Record
Temperature  
Mean Temperature 62 °F -  
Max Temperature 73 °F 80 °F 99 °F (1948)
Min Temperature 50 °F 56 °F 42 °F (1951)
Degree Days  
Heating Degree Days 4    
Growing Degree Days 12 (Base 50)    
Moisture  
Dew Point 51 °F    
Average Humidity 69    
Maximum Humidity 92    
Minimum Humidity 44    
Precipitation  
Precipitation 0.00 in - - ()
Sea Level Pressure  
Sea Level Pressure 30.27 in    
Wind  
Wind Speed 3 mph (East)    
Max Wind Speed 13 mph    
Max Gust Speed 18 mph    
Visibility 10 miles    
Events      
Averages and records for this station are not official NWS values.
T = Trace of Precipitation, MM = Missing Value Source: NWS Daily Summary

Daily Weather History Graph

Daily Weather History Graph

Search for Another Location

Airport or City:

Astronomy

Aug. 24, 2019 Rise Set
Actual Time 6:59 AM EDT 8:29 PM EDT
Civil Twilight 6:30 AM EDT 8:58 PM EDT
Nautical Twilight 5:54 AM EDT 9:33 PM EDT
Astronomical Twilight 5:17 AM EDT 10:11 PM EDT
Moon 12:50 AM EDT (8/24) 3:46 PM EDT (8/24)
Length of Visible Light 14h 28m
Length of Day
13h 29m
Last Quarter, 39% of the Moon is Illuminated
Aug 24
Last Quarter
Aug 30
New
Sep 5
First Quarter
Sep 14
Full
Sep 21
Last Quarter

Hourly Weather History & Observations

Time (EDT) Temp. Dew Point Humidity Pressure Visibility Wind Dir Wind Speed Gust Speed Precip Events Conditions
12:15 AM 55.6 °F 52.3 °F 89% 30.25 in 10.0 mi Calm Calm - N/A   Clear
12:16 AM 55.6 °F 52.2 °F 88% 30.25 in 10.0 mi Calm Calm - N/A   Clear
12:35 AM 55.4 °F 52.2 °F 89% 30.25 in 10.0 mi Calm Calm - N/A   Clear
12:59 AM 54.5 °F 51.4 °F 89% 30.25 in 10.0 mi Calm Calm - N/A   Clear
1:16 AM 54.7 °F 51.4 °F 89% 30.26 in 10.0 mi Calm Calm - N/A   Clear
1:35 AM 54.7 °F 51.3 °F 88% 30.26 in 10.0 mi Calm Calm - N/A   Clear
1:55 AM 55.0 °F 51.6 °F 88% 30.27 in 10.0 mi Calm Calm - N/A   Clear
1:56 AM 54.9 °F 51.4 °F 88% 30.27 in 10.0 mi Calm Calm - N/A   Clear
2:15 AM 54.3 °F 50.5 °F 87% 30.26 in 10.0 mi Calm Calm - N/A   Clear
2:38 AM 57.9 °F 51.6 °F 80% 30.26 in 10.0 mi East 5.8 mph - N/A   Clear
2:56 AM 57.6 °F 51.3 °F 79% 30.26 in 10.0 mi East 4.6 mph - N/A   Clear
3:15 AM 57.0 °F 50.9 °F 80% 30.26 in 10.0 mi East 4.6 mph - N/A   Clear
3:16 AM 57.0 °F 50.9 °F 80% 30.27 in 10.0 mi East 4.6 mph - N/A   Clear
3:35 AM 56.7 °F 51.1 °F 82% 30.27 in 10.0 mi ENE 3.5 mph - N/A   Clear
3:36 AM 56.7 °F 51.1 °F 82% 30.27 in 10.0 mi ENE 3.5 mph - N/A   Clear
3:58 AM 54.5 °F 49.8 °F 84% 30.27 in 10.0 mi Calm Calm - N/A   Clear
4:17 AM 53.1 °F 49.3 °F 87% 30.28 in 10.0 mi Calm Calm - N/A   Clear
4:35 AM 52.7 °F 49.6 °F 89% 30.29 in 10.0 mi Calm Calm - N/A   Clear
4:55 AM 52.7 °F 50.0 °F 91% 30.29 in 10.0 mi Calm Calm - N/A   Clear
4:56 AM 52.7 °F 50.0 °F 91% 30.29 in 10.0 mi Calm Calm - N/A   Clear
5:20 AM 52.5 °F 49.3 °F 89% 30.30 in 10.0 mi Calm Calm - N/A   Clear
5:38 AM 51.6 °F 48.9 °F 90% 30.30 in 10.0 mi Calm Calm - N/A   Clear
5:56 AM 52.0 °F 49.3 °F 90% 30.30 in 10.0 mi Calm Calm - N/A   Clear
6:15 AM 51.8 °F 49.1 °F 90% 30.31 in 10.0 mi Calm Calm - N/A   Clear
6:16 AM 51.8 °F 49.1 °F 90% 30.31 in 10.0 mi Calm Calm - N/A   Clear
6:35 AM 51.3 °F 48.6 °F 90% 30.31 in 10.0 mi Calm Calm - N/A   Clear
6:36 AM 51.3 °F 48.6 °F 90% 30.31 in 10.0 mi Calm Calm - N/A   Clear
6:59 AM 50.5 °F 48.4 °F 92% 30.32 in 7.0 mi Calm Calm - N/A   Clear
7:17 AM 50.9 °F 48.6 °F 92% 30.32 in 10.0 mi Calm Calm - N/A   Clear
7:35 AM 51.8 °F 49.1 °F 90% 30.32 in 10.0 mi Calm Calm - N/A   Clear
7:55 AM 52.9 °F 50.5 °F 92% 30.32 in 10.0 mi Calm Calm - N/A   Clear
8:20 AM 55.4 °F 52.3 °F 89% 30.32 in 10.0 mi Calm Calm - N/A   Clear
8:38 AM 56.7 °F 52.0 °F 84% 30.33 in 10.0 mi ENE 4.6 mph - N/A   Clear
8:56 AM 57.7 °F 51.4 °F 79% 30.32 in 10.0 mi NE 3.5 mph - N/A   Clear
9:15 AM 59.2 °F 52.0 °F 77% 30.32 in 10.0 mi ENE 4.6 mph - N/A   Clear
9:35 AM 60.6 °F 53.1 °F 76% 30.32 in 10.0 mi NE 5.8 mph - N/A   Clear
9:36 AM 60.8 °F 53.1 °F 76% 30.32 in 10.0 mi NE 4.6 mph - N/A   Clear
9:59 AM 62.6 °F 53.1 °F 71% 30.32 in 10.0 mi ENE 4.6 mph - N/A   Clear
10:17 AM 63.9 °F 50.9 °F 63% 30.32 in 10.0 mi ENE 4.6 mph - N/A   Clear
10:35 AM 64.9 °F 50.5 °F 60% 30.32 in 10.0 mi East 9.2 mph - N/A   Clear
10:55 AM 66.2 °F 50.9 °F 58% 30.32 in 10.0 mi ENE 6.9 mph - N/A   Clear
11:15 AM 67.1 °F 50.9 °F 56% 30.32 in 10.0 mi East 9.2 mph - N/A   Clear
11:38 AM 68.0 °F 50.4 °F 53% 30.32 in 10.0 mi East 9.2 mph - N/A   Scattered Clouds
11:56 AM 67.1 °F 50.9 °F 56% 30.31 in 10.0 mi East 10.4 mph - N/A   Scattered Clouds
12:15 PM 68.0 °F 49.5 °F 51% 30.31 in 10.0 mi East 10.4 mph 17.3 mph N/A   Scattered Clouds
12:35 PM 69.3 °F 50.0 °F 50% 30.30 in 10.0 mi ENE 11.5 mph - N/A   Scattered Clouds
12:59 PM 69.1 °F 49.8 °F 50% 30.30 in 10.0 mi East 11.5 mph - N/A   Scattered Clouds
1:17 PM 69.8 °F 50.5 °F 50% 30.30 in 10.0 mi East 12.7 mph 18.4 mph N/A   Scattered Clouds
1:35 PM 70.9 °F 50.0 °F 48% 30.29 in 10.0 mi East 12.7 mph - N/A   Scattered Clouds
1:36 PM 70.9 °F 50.0 °F 48% 30.29 in 10.0 mi East 11.5 mph - N/A   Scattered Clouds
1:55 PM 70.3 °F 50.5 °F 49% 30.28 in 10.0 mi ENE 9.2 mph 16.1 mph N/A   Scattered Clouds
2:15 PM 71.1 °F 50.9 °F 49% 30.28 in 10.0 mi ESE 10.4 mph - N/A   Scattered Clouds
2:38 PM 71.1 °F 49.8 °F 47% 30.28 in 10.0 mi East 8.1 mph - N/A   Scattered Clouds
2:56 PM 71.2 °F 50.5 °F 48% 30.28 in 10.0 mi East 10.4 mph - N/A   Scattered Clouds
3:15 PM 70.7 °F 49.6 °F 47% 30.27 in 10.0 mi East 9.2 mph 16.1 mph N/A   Scattered Clouds
3:35 PM 72.1 °F 49.6 °F 45% 30.27 in 10.0 mi ESE 8.1 mph - N/A   Clear
3:59 PM 72.7 °F 50.2 °F 45% 30.26 in 10.0 mi ESE 9.2 mph - N/A   Scattered Clouds
4:17 PM 72.5 °F 49.8 °F 45% 30.25 in 10.0 mi East 9.2 mph - N/A   Scattered Clouds
4:35 PM 73.0 °F 50.0 °F 44% 30.24 in 10.0 mi ESE 6.9 mph - N/A   Clear
4:55 PM 73.4 °F 51.1 °F 45% 30.24 in 10.0 mi East 6.9 mph - N/A   Scattered Clouds
5:15 PM 72.7 °F 50.5 °F 46% 30.24 in 10.0 mi East 9.2 mph - N/A   Scattered Clouds
5:38 PM 72.7 °F 49.8 °F 44% 30.24 in 10.0 mi East 9.2 mph - N/A   Scattered Clouds
5:55 PM 72.3 °F 50.0 °F 45% 30.24 in 10.0 mi East 8.1 mph - N/A   Clear
6:15 PM 72.5 °F 50.5 °F 46% 30.23 in 10.0 mi ENE 8.1 mph - N/A   Clear
6:16 PM 72.5 °F 50.7 °F 46% 30.23 in 10.0 mi ENE 8.1 mph - N/A   Clear
6:36 PM 71.8 °F 50.7 °F 47% 30.23 in 10.0 mi East 8.1 mph - N/A   Clear
6:59 PM 71.8 °F 49.8 °F 46% 30.23 in 10.0 mi East 6.9 mph - N/A   Clear
7:17 PM 71.2 °F 50.2 °F 47% 30.23 in 10.0 mi East 5.8 mph - N/A   Clear
7:35 PM 69.8 °F 51.8 °F 53% 30.23 in 10.0 mi ENE 3.5 mph - N/A   Clear
7:36 PM 69.8 °F 52.0 °F 53% 30.23 in 10.0 mi ENE 3.5 mph - N/A   Clear
7:55 PM 68.9 °F 52.3 °F 55% 30.23 in 10.0 mi ENE 3.5 mph - N/A   Clear
8:15 PM 67.1 °F 53.8 °F 62% 30.23 in 10.0 mi ENE 3.5 mph - N/A   Clear
8:38 PM 65.5 °F 53.4 °F 65% 30.23 in 10.0 mi Calm Calm - N/A   Scattered Clouds
8:56 PM 65.1 °F 54.1 °F 68% 30.23 in 10.0 mi ENE 4.6 mph - N/A   Mostly Cloudy
9:15 PM 64.9 °F 53.8 °F 67% 30.24 in 10.0 mi Calm Calm - N/A   Mostly Cloudy
9:35 PM 64.0 °F 54.0 °F 70% 30.24 in 10.0 mi East 3.5 mph - N/A   Mostly Cloudy
9:59 PM 63.3 °F 53.8 °F 71% 30.24 in 10.0 mi East 3.5 mph - N/A   Clear
10:17 PM 62.1 °F 53.6 °F 74% 30.25 in 10.0 mi East 3.5 mph - N/A   Clear
10:35 PM 62.1 °F 53.4 °F 73% 30.25 in 10.0 mi East 5.8 mph - N/A   Clear
10:55 PM 61.9 °F 52.9 °F 72% 30.25 in 10.0 mi East 3.5 mph - N/A   Clear
11:15 PM 61.7 °F 52.7 °F 72% 30.24 in 10.0 mi East 4.6 mph - N/A   Clear
11:20 PM 61.5 °F 52.7 °F 73% 30.24 in 10.0 mi East 5.8 mph - N/A   Clear
11:38 PM 61.7 °F 52.2 °F 71% 30.25 in 10.0 mi ESE 4.6 mph - N/A   Clear
11:56 PM 62.1 °F 51.8 °F 69% 30.25 in 10.0 mi ESE 5.8 mph - N/A   Clear